Weather History for PADU - March, 2013

Change the Weather History Date:

Wednesday, March 27, 2013

  Actual Average Record
Temperature  
Mean Temperature 39 °F -  
Max Temperature 41 °F 36 °F 46 °F (1998)
Min Temperature 37 °F 27 °F 18 °F (1953)
Degree Days  
Heating Degree Days 26    
Moisture  
Dew Point 32 °F    
Average Humidity 77    
Maximum Humidity 87    
Minimum Humidity 60    
Precipitation  
Precipitation 0.03 in - - ()
Sea Level Pressure  
Sea Level Pressure 29.52 in    
Wind  
Wind Speed 14 mph (South)    
Max Wind Speed 23 mph    
Max Gust Speed 30 mph    
Visibility 10 miles    
Events Rain    
Averages and records for this station are not official NWS values.
T = Trace of Precipitation, MM = Missing Value Source: NWS Daily Summary

Daily Weather History Graph

Daily Weather History Graph

Search for Another Location

Airport or City:

Trip Planner

Search our weather history database for the weather conditions in past years. The results will help you decide how hot, cold, wet, or windy it might be!

Date:

Astronomy

Mar. 27, 2013 Rise Set
Actual Time 8:50 AM AKDT 9:33 PM AKDT
Civil Twilight 8:14 AM AKDT 10:09 PM AKDT
Nautical Twilight 7:31 AM AKDT 10:52 PM AKDT
Astronomical Twilight 6:46 AM AKDT 11:38 PM AKDT
Moon 10:47 PM AKDT (3/27) 8:39 AM AKDT (3/27)
Length of Visible Light 13h 54m
Length of Day
12h 43m
Full, 100% of the Moon is Illuminated
Mar 27
Full
Apr 2
Last Quarter
Apr 10
New
Apr 18
First Quarter
Apr 25
Full

Hourly Weather History & Observations

Time (AKDT) Temp. Windchill Dew Point Humidity Pressure Visibility Wind Dir Wind Speed Gust Speed Precip Events Conditions
12:56 AM 37.9 °F 27.1 °F 32.0 °F 79% 29.68 in 7.0 mi SE 23.0 mph 28.8 mph 0.01 in Rain Light Rain
1:56 AM 37.0 °F 27.4 °F 30.9 °F 79% 29.66 in 10.0 mi SE 17.3 mph - 0.01 in Rain Light Rain
2:56 AM 37.0 °F 28.5 °F 30.9 °F 79% 29.63 in 10.0 mi SE 13.8 mph 24.2 mph 0.00 in Rain Light Rain
3:56 AM 37.9 °F 28.5 °F 32.0 °F 79% 29.60 in 10.0 mi SE 17.3 mph 24.2 mph 0.00 in Rain Light Rain
4:56 AM 37.9 °F 29.6 °F 32.0 °F 79% 29.58 in 10.0 mi SSE 13.8 mph - 0.01 in Rain Light Rain
5:56 AM 37.9 °F 28.5 °F 32.0 °F 79% 29.55 in 10.0 mi SSE 17.3 mph 23.0 mph 0.00 in Rain Light Rain
6:56 AM 37.9 °F 28.9 °F 33.1 °F 83% 29.54 in 10.0 mi SSE 16.1 mph 21.9 mph 0.00 in Rain Light Rain
8:56 AM 39.0 °F 32.3 °F 34.0 °F 82% 29.50 in 10.0 mi SSE 10.4 mph - 0.00 in Rain Light Rain
9:56 AM 39.0 °F 34.8 °F 35.1 °F 86% 29.50 in 10.0 mi SSE 5.8 mph - 0.00 in   Mostly Cloudy
10:39 AM 39.2 °F 37.0 °F 35.6 °F 87% 29.47 in 10.0 mi SSE 3.5 mph - N/A   Mostly Cloudy
10:56 AM 39.9 °F 33.9 °F 35.1 °F 83% 29.48 in 10.0 mi SSE 9.2 mph - N/A   Mostly Cloudy
11:27 AM 39.2 °F 34.2 °F 35.6 °F 87% 29.46 in 10.0 mi SSE 6.9 mph - N/A   Mostly Cloudy
11:40 AM 39.2 °F 33.6 °F 35.6 °F 87% 29.45 in 10.0 mi SSE 8.1 mph - N/A   Overcast
11:56 AM 41.0 °F 37.1 °F 36.0 °F 82% 29.46 in 10.0 mi South 5.8 mph - N/A   Mostly Cloudy
12:56 PM 39.9 °F 33.4 °F 34.0 °F 79% 29.47 in 10.0 mi SW 10.4 mph - N/A   Mostly Cloudy
1:56 PM 39.0 °F 29.3 °F 30.9 °F 73% 29.47 in 10.0 mi WSW 19.6 mph 24.2 mph N/A   Mostly Cloudy
2:56 PM 39.9 °F 30.5 °F 27.0 °F 60% 29.47 in 10.0 mi SW 19.6 mph - N/A   Partly Cloudy
3:56 PM 39.0 °F 28.5 °F 28.0 °F 65% 29.49 in 10.0 mi SW 23.0 mph 29.9 mph N/A   Scattered Clouds
4:56 PM 39.0 °F 30.3 °F 28.0 °F 65% 29.51 in 10.0 mi WSW 16.1 mph 26.5 mph 0.00 in Rain Light Rain
5:56 PM 39.9 °F 32.9 °F 30.0 °F 68% 29.52 in 10.0 mi SSW 11.5 mph - 0.00 in   Partly Cloudy
6:56 PM 39.0 °F 32.8 °F 28.9 °F 67% 29.51 in 10.0 mi South 9.2 mph - N/A   Partly Cloudy
7:56 PM 39.9 °F 35.1 °F 27.0 °F 60% 29.49 in 10.0 mi SE 6.9 mph - N/A   Overcast
8:56 PM 39.0 °F 33.4 °F 28.9 °F 67% 29.49 in 10.0 mi SSE 8.1 mph - N/A   Overcast
9:56 PM 39.0 °F 34.8 °F 30.9 °F 73% 29.48 in 10.0 mi South 5.8 mph - 0.00 in Rain Light Rain
10:56 PM 37.9 °F 34.4 °F 32.0 °F 79% 29.48 in 10.0 mi SSW 4.6 mph - 0.00 in Rain Light Rain
11:56 PM 37.0 °F 32.4 °F 33.1 °F 86% 29.47 in 10.0 mi NW 5.8 mph - 0.00 in   Overcast